TimePDT,TemperatureF,Dew PointF,Humidity,Sea Level PressureIn,VisibilityMPH,Wind Direction,Wind SpeedMPH,Gust SpeedMPH,PrecipitationIn,Events,Conditions,WindDirDegrees,DateUTC
12:53 AM,72.0,51.1,48,29.91,10.0,NW,4.6,-,N/A,,Clear,310,2013-07-30 07:53:00
1:53 AM,73.0,48.0,41,29.92,10.0,North,5.8,-,N/A,,Clear,350,2013-07-30 08:53:00
2:53 AM,66.9,46.0,47,29.94,10.0,West,4.6,-,N/A,,Clear,280,2013-07-30 09:53:00
3:53 AM,66.0,48.9,54,29.95,10.0,WNW,8.1,-,N/A,,Clear,290,2013-07-30 10:53:00
4:53 AM,64.9,48.9,56,29.96,10.0,Variable,4.6,-,N/A,,Clear,0,2013-07-30 11:53:00
5:53 AM,61.0,51.1,70,29.98,10.0,West,5.8,-,N/A,,Clear,280,2013-07-30 12:53:00
6:53 AM,62.1,50.0,65,30.01,10.0,West,8.1,-,N/A,,Clear,270,2013-07-30 13:53:00
7:53 AM,66.9,52.0,59,30.02,8.0,WSW,6.9,-,N/A,,Clear,250,2013-07-30 14:53:00
8:53 AM,73.0,48.9,42,30.03,10.0,NW,5.8,-,N/A,,Clear,310,2013-07-30 15:53:00
9:53 AM,77.0,51.1,40,30.02,10.0,West,5.8,-,N/A,,Clear,280,2013-07-30 16:53:00
10:53 AM,82.0,46.9,29,30.02,10.0,Calm,Calm,-,N/A,,Clear,0,2013-07-30 17:53:00
11:53 AM,84.9,45.0,25,30.01,10.0,SSW,3.5,-,N/A,,Clear,210,2013-07-30 18:53:00
12:53 PM,87.1,43.0,21,30.01,10.0,Calm,Calm,-,N/A,,Clear,0,2013-07-30 19:53:00
1:53 PM,89.1,43.0,20,30.00,10.0,Variable,6.9,-,N/A,,Clear,0,2013-07-30 20:53:00
2:53 PM,90.0,36.0,15,29.99,10.0,Variable,5.8,-,N/A,,Clear,0,2013-07-30 21:53:00
3:53 PM,91.0,30.9,12,29.97,8.0,Calm,Calm,-,N/A,,Clear,0,2013-07-30 22:53:00
4:53 PM,91.9,28.9,11,29.96,7.0,Variable,4.6,-,N/A,,Clear,0,2013-07-30 23:53:00
5:53 PM,91.0,34.0,13,29.96,8.0,East,3.5,-,N/A,,Clear,100,2013-07-31 00:53:00
6:53 PM,88.0,44.1,22,29.96,8.0,ESE,4.6,-,N/A,,Clear,110,2013-07-31 01:53:00
7:53 PM,84.0,48.0,28,29.97,6.0,SSE,3.5,-,N/A,,Haze,150,2013-07-31 02:53:00
8:53 PM,75.9,48.0,37,29.97,6.0,Calm,Calm,-,N/A,,Haze,0,2013-07-31 03:53:00
9:53 PM,68.0,52.0,56,30.00,7.0,West,8.1,-,N/A,,Clear,260,2013-07-31 04:53:00
10:53 PM,73.0,50.0,44,30.00,10.0,West,4.6,-,N/A,,Clear,270,2013-07-31 05:53:00